User: anonymous   Login
Location: Koslow
(50.3020°N, 18.5663°E)
Time: 03:26:09
(UTC+00:00)
Language:

STARLINK-1256 - Orbit

View from above orbital plane
View from above orbital plane
View from above satellite
View from above satellite

Ground track
Ground track

The orbit data is extracted from the following two-line orbital elements,

1 45401U 20019AT  20221.91667824 -.00017863 +00000-0 -12095-2 0  9992
2 45401 053.0001 289.0174 0001086 104.8741 354.5449 15.05592496001760
Epoch (UTC): 08 August 2020 22:00:01
Eccentricity: 0.0001086
inclination: 53.0001°
perigee height: 549 km
apogee height: 550 km
right ascension of ascending node: 289.0174°
argument of perigee: 104.8741°
revolutions per day: 15.05592496
mean anomaly at epoch: 354.5449°
orbit number at epoch: 176

The dashed part of the orbit path shows where the satellite is in the earth's shadow,  

DLR